ES2JT Weather Reports


time (UTC)temp
C
wind
direction
speed
KPH
gust
KPH
rain 1hr
cm
rain 24hr
cm
rain mn
cm
humidity
%
barometer
mb
20260906063358 12 327 11.3 17.7 0.00 0.00 0.00 81 1023.1
20260906062459 12 317 12.9 20.9 0.00 0.00 0.00 81 1023.1
20260906061558 11 321 12.9 19.3 0.00 0.00 0.00 82 1022.9
20260906060658 11 349 11.3 14.5 0.00 0.00 0.00 82 1022.6
20260906055758 11 359 12.9 17.7 0.00 0.00 0.00 81 1022.4
20260906054858 12 342 14.5 20.9 0.00 0.00 0.00 79 1022.3
20260906053959 12 343 16.1 27.4 0.00 0.00 0.00 80 1022.2
20260906053058 12 345 16.1 25.7 0.00 0.00 0.00 80 1022.1
20260906052158 12 340 16.1 22.5 0.00 0.00 0.00 81 1022.0
20260906051512 12 15 14.5 22.5 0.00 0.00 0.00 82 1022.1
20260906050358 11 332 19.3 25.7 0.00 0.00 0.00 84 1021.7
20260906045712 11 308 22.5 25.7 0.00 0.00 0.00 85 1021.5
20260906044809 11 311 16.1 20.9 0.00 0.00 0.00 86 1021.4
20260906043658 11 358 16.1 22.5 0.00 0.00 0.00 87 1021.4
20260906042758 11 319 12.9 17.7 0.00 0.00 0.00 88 1021.1
20260906042111 11 336 14.5 17.7 0.00 0.00 0.00 88 1020.9
20260906040959 11 337 22.5 22.5 0.00 0.00 0.00 89 1021.0
20260906040058 11 326 16.1 22.5 0.00 0.00 0.00 89 1021.0
20260906035158 11 354 14.5 17.7 0.00 0.00 0.00 89 1020.7
20260906034510 11 354 16.1 17.7 0.00 0.00 0.00 89 1020.7
20260906033608 11 325 14.5 17.7 0.00 0.00 0.00 89 1020.2
20260906032500 11 318 16.1 17.7 0.00 0.00 0.00 90 1020.1
20260906031558 11 360 17.7 17.7 0.00 0.00 0.00 90 1020.1
20260906030658 11 357 11.3 12.9 0.00 0.00 0.00 89 1020.0
20260906025758 11 357 11.3 12.9 0.00 0.00 0.00 89 1020.1
20260906024858 11 335 11.3 12.9 0.00 0.00 0.00 89 1019.9
20260906024212 11 328 12.9 16.1 0.00 0.00 0.00 89 1019.7
20260906023058 11 39 14.5 16.1 0.00 0.00 0.00 89 1019.6
20260906022158 11 344 12.9 17.7 0.00 0.00 0.00 89 1019.3
20260906021258 12 332 11.3 17.7 0.00 0.00 0.00 88 1019.4
20260906020358 12 350 9.7 16.1 0.00 0.00 0.00 88 1019.2
20260906015459 12 298 12.9 12.9 0.00 0.00 0.00 88 1018.9
20260906014558 12 9 12.9 24.1 0.00 0.00 0.00 88 1019.0
20260906013658 12 347 12.9 14.5 0.00 0.00 0.00 88 1018.8
20260906012758 12 355 12.9 17.7 0.00 0.00 0.00 88 1018.7
20260906012108 12 348 11.3 17.7 0.00 0.00 0.00 89 1018.7
20260906010958 13 354 9.7 12.9 0.00 0.00 0.00 90 1018.6
20260906010308 13 352 11.3 19.3 0.00 0.00 0.00 90 1018.6
20260906005158 13 331 8.0 12.9 0.00 0.00 0.00 91 1018.6
20260906004258 13 325 9.7 12.9 0.00 0.00 0.00 91 1018.5
20260906003359 13 336 6.4 11.3 0.00 0.00 0.00 92 1018.1
20260906002459 12 360 6.4 6.4 0.00 0.00 0.00 92 1018.2
20260906001558 12 315 6.4 6.4 0.00 0.00 0.00 89 1017.9
20260906000658 12 315 6.4 6.4 0.00 0.00 0.00 89 1018.1
20260905235759 12 315 6.4 6.4 0.00 0.00 0.00 89 1018.1
20260905235112 12 315 6.4 6.4 0.00 0.00 0.00 89 1017.9
20260905233958 12 315 6.4 6.4 0.00 0.00 0.00 89 1017.7
20260905233058 12 359 4.8 6.4 0.00 0.00 0.00 89 1017.8
20260905232157 12 355 4.8 6.4 0.00 0.00 0.00 89 1017.7
20260905231258 13 278 6.4 9.7 0.00 0.00 0.00 89 1017.5
20260905230608 13 337 8.0 9.7 0.00 0.00 0.00 89 1017.6
20260905225459 12 333 8.0 9.7 0.00 0.00 0.00 87 1017.4
20260905224558 13 325 4.8 6.4 0.00 0.00 0.00 87 1017.2
20260905223659 13 322 8.0 11.3 0.00 0.00 0.00 86 1017.4
20260905222758 13 337 6.4 11.3 0.00 0.00 0.00 85 1017.2
20260905221858 13 327 8.0 14.5 0.00 0.00 0.00 83 1017.0
20260905221212 14 325 8.0 14.5 0.00 0.00 0.00 83 1016.8
20260905220310 14 323 8.0 12.9 0.00 0.00 0.00 82 1017.2
20260905215158 14 314 9.7 12.9 0.00 0.00 0.00 82 1016.9
20260905214258 14 333 8.0 11.3 0.00 0.00 0.00 82 1016.8
20260905213611 14 338 8.0 9.7 0.00 0.00 0.00 82 1016.8
20260905212459 14 299 6.4 8.0 0.00 0.00 0.00 82 1016.5
20260905211558 14 299 8.0 11.3 0.00 0.00 0.00 83 1016.6
20260905210659 14 312 6.4 8.0 0.00 0.00 0.00 84 1016.5
20260905210011 14 334 8.0 8.0 0.00 0.00 0.00 86 1016.3
20260905204858 13 317 6.4 9.7 0.00 0.00 0.00 90 1016.3
20260905203959 13 340 6.4 6.4 0.00 0.00 0.00 92 1016.2
20260905203058 13 315 6.4 6.4 0.00 0.00 0.00 93 1016.1
20260905202158 12 270 3.2 3.2 0.00 0.00 0.00 88 1016.1
20260905201258 12 270 3.2 3.2 0.00 0.00 0.00 88 1016.0
20260905200610 12 270 3.2 3.2 0.00 0.00 0.00 88 1016.0
20260905195459 12 270 3.2 3.2 0.00 0.00 0.00 88 1015.9
20260905194558 12 270 3.2 3.2 0.00 0.00 0.00 88 1015.7
20260905193658 12 270 3.2 3.2 0.00 0.00 0.00 88 1015.9
20260905192758 12 270 3.2 3.2 0.00 0.00 0.00 88 1015.6
20260905192112 12 270 3.2 3.2 0.00 0.00 0.00 88 1015.7
20260905190959 12 270 3.2 3.2 0.00 0.00 0.00 88 1015.8
20260905190058 12 270 3.2 3.2 0.00 0.00 0.00 88 1015.8
20260905185158 12 259 3.2 3.2 0.00 0.00 0.00 88 1015.6
20260905184258 12 257 1.6 3.2 0.00 0.00 0.00 88 1015.4
20260905183608 12 267 3.2 4.8 0.00 0.00 0.00 87 1015.7
20260905182459 13 260 1.6 3.2 0.00 0.00 0.00 86 1015.5
20260905181558 13 251 4.8 8.0 0.00 0.00 0.00 85 1015.4
20260905180658 13 219 4.8 6.4 0.00 0.00 0.00 84 1015.5
20260905175757 13 249 6.4 6.4 0.00 0.00 0.00 83 1015.5
20260905174858 13 230 4.8 6.4 0.00 0.00 0.00 81 1015.4
20260905173959 14 259 6.4 9.7 0.00 0.00 0.00 81 1015.3
20260905173059 14 263 4.8 8.0 0.00 0.00 0.00 79 1015.3
20260905172158 15 274 6.4 8.0 0.00 0.00 0.00 78 1015.4
20260905171258 15 273 6.4 9.7 0.00 0.00 0.00 77 1015.1
20260905170612 15 274 6.4 11.3 0.00 0.00 0.00 74 1015.3
20260905165459 15 281 8.0 11.3 0.00 0.00 0.00 73 1015.2
20260905164558 15 293 9.7 12.9 0.00 0.00 0.00 73 1015.0
20260905163658 15 296 9.7 12.9 0.00 0.00 0.00 73 1014.9
20260905162758 16 281 9.7 12.9 0.00 0.00 0.00 71 1014.7
20260905162108 16 276 9.7 12.9 0.00 0.00 0.00 70 1015.0
20260905160957 16 292 11.3 20.9 0.00 0.00 0.00 70 1014.9
20260905160058 16 302 11.3 17.7 0.00 0.00 0.00 68 1014.8
20260905155411 16 310 9.7 17.7 0.00 0.00 0.00 67 1014.4
20260905154258 16 304 11.3 14.5 0.00 0.00 0.00 66 1014.3
20260905153357 17 302 9.7 14.5 0.00 0.00 0.00 65 1014.3
20260905152459 17 304 11.3 16.1 0.00 0.00 0.00 64 1014.2
20260905151557 17 300 9.7 14.5 0.00 0.00 0.00 65 1014.2
20260905150907 17 284 9.7 12.9 0.00 0.00 0.00 63 1014.1
20260905145758 17 293 12.9 17.7 0.00 0.00 0.00 62 1013.9
20260905144857 17 312 12.9 17.7 0.00 0.00 0.00 61 1013.9
20260905143959 17 303 11.3 17.7 0.00 0.00 0.00 60 1014.1
20260905143058 18 293 9.7 14.5 0.00 0.00 0.00 64 1014.0
20260905142409 17 298 11.3 14.5 0.00 0.00 0.00 64 1013.9
20260905141257 18 300 12.9 17.7 0.00 0.00 0.00 63 1013.8
20260905140358 18 305 16.1 24.1 0.00 0.00 0.00 62 1013.5
20260905135459 18 295 14.5 17.7 0.00 0.00 0.00 60 1013.6
20260905134557 18 298 12.9 17.7 0.00 0.00 0.00 60 1013.4
20260905133657 18 302 12.9 17.7 0.00 0.00 0.00 62 1013.4
20260905132758 18 287 9.7 19.3 0.00 0.00 0.00 63 1013.4
20260905131859 18 314 9.7 12.9 0.00 0.00 0.00 62 1013.7
20260905130959 18 295 11.3 17.7 0.00 0.00 0.00 58 1013.4
20260905130058 19 305 9.7 17.7 0.00 0.00 0.00 59 1013.4
20260905125158 19 291 11.3 17.7 0.00 0.00 0.00 57 1013.2
20260905124259 19 300 11.3 17.7 0.00 0.00 0.00 57 1013.4
20260905123357 19 314 9.7 14.5 0.00 0.00 0.00 60 1013.3
20260905122709 18 320 12.9 17.7 0.00 0.00 0.00 60 1013.1
20260905121558 18 313 12.9 17.7 0.00 0.00 0.00 62 1013.4
20260905120657 18 329 11.3 17.7 0.00 0.00 0.00 64 1013.2
20260905120011 18 322 9.7 17.7 0.00 0.00 0.00 64 1013.2
20260905114858 18 292 9.7 14.5 0.00 0.00 0.00 63 1013.0
20260905113958 19 307 11.3 12.9 0.00 0.00 0.00 58 1013.0
20260905113057 18 307 11.3 16.1 0.00 0.00 0.00 56 1013.0
20260905112158 18 326 12.9 16.1 0.00 0.00 0.00 59 1012.8
20260905111258 18 320 11.3 16.1 0.00 0.00 0.00 60 1012.6
20260905110358 18 328 12.9 16.1 0.00 0.00 0.00 62 1012.8
20260905105459 18 309 12.9 17.7 0.00 0.00 0.00 64 1012.6
20260905104558 18 299 11.3 17.7 0.00 0.00 0.00 65 1012.5
20260905103658 18 333 9.7 12.9 0.00 0.00 0.00 65 1012.3
20260905102758 18 323 8.0 12.9 0.00 0.00 0.00 64 1012.1
20260905101858 19 301 6.4 12.9 0.00 0.00 0.00 61 1012.2
20260905100959 19 334 6.4 9.7 0.00 0.00 0.00 61 1012.4
20260905100058 19 340 8.0 9.7 0.00 0.00 0.00 61 1012.3
20260905095158 21 51 8.0 12.9 0.00 0.00 0.00 55 1011.9
20260905094258 22 44 9.7 12.9 0.00 0.00 0.00 50 1012.0
20260905093359 23 49 11.3 12.9 0.00 0.00 0.00 54 1012.0
20260905092458 22 82 11.3 12.9 0.00 0.00 0.00 54 1012.0
20260905091808 21 63 9.7 11.3 0.00 0.00 0.00 57 1011.7
20260905090657 20 7 6.4 6.4 0.00 0.00 0.00 60 1011.7
20260905085758 20 35 6.4 6.4 0.00 0.00 0.00 60 1011.8
20260905084857 20 107 8.0 8.0 0.00 0.00 0.00 56 1011.5
20260905083958 20 350 6.4 6.4 0.00 0.00 0.00 59 1011.7
20260905083058 20 27 6.4 6.4 0.00 0.00 0.00 59 1011.6
20260905082158 20 56 8.0 8.0 0.00 0.00 0.00 58 1011.5
20260905081258 20 47 6.4 6.4 0.00 0.00 0.00 59 1011.5
20260905080358 19 28 6.4 6.4 0.00 0.00 0.00 61 1011.6
20260905075500 20 59 6.4 8.0 0.00 0.00 0.00 62 1011.4
20260905074557 20 50 6.4 6.4 0.00 0.00 0.00 62 1011.3
20260905073658 20 41 6.4 8.0 0.00 0.00 0.00 61 1011.6
20260905073007 21 70 6.4 8.0 0.00 0.00 0.00 59 1011.3
20260905071858 21 38 6.4 8.0 0.00 0.00 0.00 60 1011.2
20260905070958 20 74 4.8 6.4 0.00 0.00 0.00 70 1011.4
20260905070309 19 51 3.2 6.4 0.00 0.00 0.00 72 1011.1
20260905065158 20 59 4.8 6.4 0.00 0.00 0.00 72 1011.1
20260905064508 20 61 3.2 4.8 0.00 0.00 0.00 76 1010.9